Regional Weather Roundup
Issued by NWS

Home | Current Version | Previous Version | Graphics & Text | Print | Product List | Glossary On
Versions: 1 2 3 4 5 6 7 8 9 10 11 12 13 14 15 16 17 18 19 20 21 22 23 24 25 26 27 28 29 30 31 32 33 34 35 36 37 38 39 40 41 42 43 44 45 46 47 48 49 50
000
ASUS45 KBOI 110010
RWRID

IDAHO REGIONAL WEATHER ROUNDUP
NATIONAL WEATHER SERVICE BOISE ID
500 PM MST WED FEB 10 2016

NOTE: "FAIR" INDICATES FEW OR NO CLOUDS BELOW 12000 FEET
WITH NO SIGNIFICANT WEATHER AND/OR OBSTRUCTIONS TO VISIBILITY

IDZ012-014-110100-
SOUTHWEST IDAHO


CITY           SKY/WX    TMP DP  RH WIND       PRES   REMARKS
BOISE          SUNNY     41  33  73 N10       30.41R
CALDWELL       MOSUNNY   43  33  68 N6        30.44R
MOUNTAIN HOME  MOSUNNY   36  31  82 S5        30.39S WCI  32
$$

IDZ016-017-110100-
SOUTHCENTRAL IDAHO


CITY           SKY/WX    TMP DP  RH WIND       PRES   REMARKS
BURLEY         PTCLDY    39  31  72 N5        30.36S
JEROME         PTCLDY    34  28  79 NE8       30.37F WCI  27
TWIN FALLS     PTCLDY    40  31  70 N3        30.36F
$$

IDZ019>023-110100-
SOUTHEAST IDAHO


CITY           SKY/WX    TMP DP  RH WIND       PRES   REMARKS
IDAHO FALLS    CLOUDY    21  17  84 N3        30.41R
POCATELLO      CLOUDY    35  25  66 NE7       30.41R WCI  29
REXBURG        CLOUDY    32  23  69 CALM      30.40R
$$

IDZ006-010-011-018-031-032-110100-
CENTRAL IDAHO MOUNTAINS


CITY           SKY/WX    TMP DP  RH WIND       PRES   REMARKS
MCCALL         MOCLDY    38  29  70 NW5       30.32R WCI  34
HAILEY         PTCLDY    34  27  75 SE8       30.36F WCI  27
STANLEY          N/A     34  21  59 CALM      30.34S
SALMON         CLOUDY    21  18  86 CALM      30.37F
CHALLIS        CLEAR     24  18  77 CALM      30.34F
$$

IDZ002-004-006-007-026-110100-
NORTHERN IDAHO


CITY           SKY/WX    TMP DP  RH WIND       PRES   REMARKS
LEWISTON       MOCLDY    52  36  54 CALM      30.27S
LOWELL           N/A     46  39  76 N3        30.29R
COEUR D`ALENE  CLOUDY    41  36  81 N3        30.22S
MULLAN PASS    CLOUDY    39  26  59 VRB3      30.24R
$$



USA.gov is the U.S. government's official web portal to all federal, state and local government web resources and services.